Tracking 23752 objects as of 23-Oct-2021
HD Live streaming from Space Station
objects crossing your sky now

COSMOS 1375 DEB

Track COSMOS 1375 DEB now!
10-day predictions


NORAD ID: 16383
Int'l Code: 1982-055X
Perigee: 962.2 km
Apogee: 1,020.8 km
Inclination: 65.8 °
Period: 104.8 minutes
Semi major axis: 7362 km
RCS: 0.1937 m2 (medium)
Launch date: June 6, 1982
Source: Commonwealth of Independent States (former USSR) (CIS)
Launch site: PLESETSK MISSILE AND SPACE COMPLEX (PKMTR)

Note: This is SATELLITE DEBRIS
aabbcc
Your satellite tracking list
Your tracking list is empty




NASA's NSSDC Master Catalog

Two Line Element Set (TLE):
1 16383U 82055X   21296.04943638  .00000009  00000-0  94689-4 0  9997
2 16383  65.8295 156.7492 0039827 120.0434  29.3430 13.74245174801621
Source of the keplerian elements: AFSPC